Weather History for Cody, WY

Change the Weather History Date:

Monday, March 10, 2014

  Actual Average Record
Temperature  
Mean Temperature 44 °F -  
Max Temperature 55 °F 49 °F 72 °F (1972)
Min Temperature 32 °F 26 °F -20 °F (1932)
Degree Days  
Heating Degree Days 22    
Moisture  
Dew Point 30 °F    
Average Humidity 56    
Maximum Humidity 100    
Minimum Humidity 36    
Precipitation  
Precipitation 0.00 in - - ()
Sea Level Pressure  
Sea Level Pressure 29.76 in    
Wind  
Wind Speed 12 mph (WSW)    
Max Wind Speed 20 mph    
Max Gust Speed 24 mph    
Visibility 10 miles    
Events      
Averages and records for this station are not official NWS values.
T = Trace of Precipitation, MM = Missing Value Source: NWS Daily Summary

Daily Weather History Graph

Daily Weather History Graph

Search for Another Location

Airport:

Trip Planner

Search our weather history database for the weather conditions in past years. The results will help you decide how hot, cold, wet, or windy it might be!

Date:

Astronomy

Mar. 10, 2014 Rise Set
Actual Time 7:37 AM MDT 7:15 PM MDT
Civil Twilight 7:08 AM MDT 7:44 PM MDT
Nautical Twilight 6:34 AM MDT 8:18 PM MDT
Astronomical Twilight 6:00 AM MDT 8:52 PM MDT
Moon 1:53 PM MDT (3/10) 4:01 AM MDT (3/10)
Length of Visible Light 12h 36m
Length of Day
11h 38m
Waxing Gibbous, 70% of the Moon is Illuminated
Mar 10
Waxing Gibbous
Mar 16
Full
Mar 23
Last Quarter
Mar 30
New
Apr 7
First Quarter

Hourly Weather History & Observations

Time (MDT) Temp. Windchill Dew Point Humidity Pressure Visibility Wind Dir Wind Speed Gust Speed Precip Events Conditions
12:15 AM 48.2 °F - 28.4 °F 46% 29.95 in 10.0 mi SW 15.0 mph 24.2 mph N/A   Clear
12:35 AM 46.4 °F 41.1 °F 30.2 °F 53% 29.96 in 10.0 mi SSW 11.5 mph - N/A   Clear
12:55 AM 44.6 °F 38.4 °F 30.2 °F 57% 29.95 in 10.0 mi SW 12.7 mph - N/A   Clear
1:15 AM 46.4 °F 39.2 °F 30.2 °F 53% 29.95 in 10.0 mi SW 18.4 mph - N/A   Clear
1:35 AM 48.2 °F - 30.2 °F 50% 29.95 in 10.0 mi SW 18.4 mph - N/A   Clear
1:55 AM 48.2 °F - 28.4 °F 46% 29.94 in 10.0 mi SW 15.0 mph - N/A   Clear
2:15 AM 48.2 °F - 30.2 °F 50% 29.95 in 10.0 mi SW 12.7 mph 17.3 mph N/A   Partly Cloudy
2:35 AM 46.4 °F 41.5 °F 30.2 °F 53% 29.93 in 10.0 mi WSW 10.4 mph - N/A   Scattered Clouds
2:55 AM 44.6 °F 38.8 °F 30.2 °F 57% 29.92 in 10.0 mi SW 11.5 mph - N/A   Mostly Cloudy
3:15 AM 44.6 °F 38.1 °F 28.4 °F 53% 29.91 in 10.0 mi SSW 13.8 mph - N/A   Partly Cloudy
3:35 AM 44.6 °F 39.2 °F 28.4 °F 53% 29.90 in 10.0 mi SSW 10.4 mph - N/A   Partly Cloudy
3:55 AM 44.6 °F 39.7 °F 30.2 °F 57% 29.88 in 10.0 mi SSW 9.2 mph - N/A   Mostly Cloudy
4:15 AM 42.8 °F 37.5 °F 30.2 °F 61% 29.87 in 10.0 mi South 9.2 mph - N/A   Overcast
4:35 AM 41.0 °F 33.5 °F 28.4 °F 61% 29.86 in 10.0 mi SSE 13.8 mph - N/A   Overcast
4:55 AM 42.8 °F 37.0 °F 30.2 °F 61% 29.85 in 10.0 mi SE 10.4 mph - N/A   Overcast
5:15 AM 44.6 °F 39.7 °F 28.4 °F 53% 29.84 in 10.0 mi SSE 9.2 mph - N/A   Overcast
5:35 AM 42.8 °F 38.0 °F 30.2 °F 61% 29.84 in 10.0 mi SSE 8.1 mph - N/A   Overcast
5:55 AM 42.8 °F 38.0 °F 30.2 °F 61% 29.84 in 10.0 mi SSE 8.1 mph - N/A   Overcast
6:15 AM 42.8 °F 37.0 °F 30.2 °F 61% 29.84 in 10.0 mi South 10.4 mph - N/A   Overcast
6:35 AM 41.0 °F 35.2 °F 30.2 °F 65% 29.83 in 10.0 mi South 9.2 mph - N/A   Overcast
6:55 AM 44.6 °F 40.2 °F 30.2 °F 57% 29.82 in 10.0 mi SSE 8.1 mph 16.1 mph N/A   Overcast
7:15 AM 42.8 °F 38.0 °F 30.2 °F 61% 29.82 in 10.0 mi SSE 8.1 mph - N/A   Overcast
7:35 AM 44.6 °F 42.2 °F 30.2 °F 57% 29.81 in 10.0 mi South 4.6 mph - N/A   Overcast
7:55 AM 46.4 °F 41.5 °F 30.2 °F 53% 29.80 in 10.0 mi SE 10.4 mph - N/A   Overcast
8:15 AM 48.2 °F - 30.2 °F 50% 29.79 in 10.0 mi Calm Calm - N/A   Overcast
8:35 AM 48.2 °F - 30.2 °F 50% 29.77 in 10.0 mi SSE 9.2 mph 18.4 mph N/A   Overcast
8:55 AM 50.0 °F - 32.0 °F 50% 29.77 in 10.0 mi SSW 3.5 mph - N/A   Scattered Clouds
9:15 AM 51.8 °F - 32.0 °F 47% 29.77 in 10.0 mi SE 6.9 mph - N/A   Scattered Clouds
9:35 AM 51.8 °F - 32.0 °F 47% 29.76 in 10.0 mi SE 4.6 mph - N/A   Overcast
9:55 AM 53.6 °F - 32.0 °F 44% 29.75 in 10.0 mi SSE 5.8 mph - N/A   Overcast
10:15 AM 55.4 °F - 30.2 °F 38% 29.74 in 10.0 mi West 3.5 mph - N/A   Overcast
10:35 AM 55.4 °F - 28.4 °F 36% 29.74 in 10.0 mi WSW 16.1 mph 21.9 mph N/A   Scattered Clouds
10:55 AM 55.4 °F - 28.4 °F 36% 29.73 in 10.0 mi West 15.0 mph 19.6 mph N/A   Clear
11:15 AM 55.4 °F - 28.4 °F 36% 29.72 in 10.0 mi WSW 15.0 mph 24.2 mph N/A   Clear
11:35 AM 55.4 °F - 28.4 °F 36% 29.71 in 10.0 mi West 12.7 mph 20.7 mph N/A   Clear
11:55 AM 55.4 °F - 28.4 °F 36% 29.71 in 10.0 mi West 15.0 mph 21.9 mph N/A   Partly Cloudy
12:15 PM 55.4 °F - 28.4 °F 36% 29.70 in 10.0 mi WSW 12.7 mph 23.0 mph N/A   Partly Cloudy
12:35 PM 55.4 °F - 28.4 °F 36% 29.70 in 10.0 mi West 17.3 mph 23.0 mph N/A   Clear
12:55 PM 55.4 °F - 28.4 °F 36% 29.70 in 10.0 mi WSW 10.4 mph 21.9 mph N/A   Clear
1:15 PM 55.4 °F - 28.4 °F 36% 29.69 in 10.0 mi West 13.8 mph 20.7 mph N/A   Clear
1:35 PM 55.4 °F - 30.2 °F 38% 29.69 in 10.0 mi WSW 10.4 mph 19.6 mph N/A   Clear
1:55 PM 55.4 °F - 30.2 °F 38% 29.68 in 10.0 mi West 9.2 mph - N/A   Clear
2:15 PM 55.4 °F - 30.2 °F 38% 29.67 in 10.0 mi SW 16.1 mph 24.2 mph N/A   Clear
2:35 PM 53.6 °F - 30.2 °F 41% 29.67 in 10.0 mi WSW 9.2 mph 16.1 mph N/A   Scattered Clouds
2:55 PM 55.4 °F - 30.2 °F 38% 29.66 in 10.0 mi West 12.7 mph 18.4 mph N/A   Overcast
3:15 PM 53.6 °F - 30.2 °F 41% 29.65 in 10.0 mi West 12.7 mph 19.6 mph N/A   Overcast
3:35 PM 53.6 °F - 30.2 °F 41% 29.66 in 10.0 mi West 11.5 mph 23.0 mph N/A   Overcast
3:55 PM 53.6 °F - 30.2 °F 41% 29.65 in 10.0 mi WSW 12.7 mph 19.6 mph N/A   Mostly Cloudy
4:15 PM 55.4 °F - 30.2 °F 38% 29.65 in 10.0 mi WSW 12.7 mph 20.7 mph N/A   Mostly Cloudy
4:35 PM 53.6 °F - 30.2 °F 41% 29.64 in 10.0 mi WSW 13.8 mph 19.6 mph N/A   Partly Cloudy
4:55 PM 51.8 °F - 30.2 °F 44% 29.64 in 10.0 mi West 11.5 mph 16.1 mph N/A   Scattered Clouds
5:15 PM 50.0 °F - 32.0 °F 50% 29.64 in 10.0 mi West 9.2 mph - N/A   Mostly Cloudy
5:35 PM 50.0 °F - 30.2 °F 47% 29.64 in 10.0 mi WSW 11.5 mph 18.4 mph N/A   Mostly Cloudy
5:55 PM 48.2 °F - 32.0 °F 54% 29.64 in 10.0 mi West 10.4 mph 16.1 mph N/A   Overcast
6:15 PM 48.2 °F - 33.8 °F 58% 29.64 in 10.0 mi WSW 9.2 mph 18.4 mph N/A   Overcast
6:35 PM 46.4 °F 42.4 °F 33.8 °F 62% 29.64 in 10.0 mi WNW 8.1 mph 18.4 mph N/A   Overcast
6:55 PM 46.4 °F 45.2 °F 32.0 °F 57% 29.63 in 10.0 mi ESE 3.5 mph - N/A   Mostly Cloudy
7:15 PM 44.6 °F 39.7 °F 30.2 °F 57% 29.63 in 10.0 mi West 9.2 mph - N/A   Overcast
7:35 PM 44.6 °F 43.1 °F 30.2 °F 57% 29.63 in 10.0 mi West 3.5 mph - N/A   Overcast
7:55 PM 42.8 °F 37.5 °F 32.0 °F 66% 29.65 in 10.0 mi NNE 9.2 mph 17.3 mph N/A   Overcast
8:15 PM 37.4 °F 28.5 °F 35.6 °F 93% 29.67 in 3.0 mi North 15.0 mph 21.9 mph N/A   Overcast
8:35 PM 35.6 °F 24.8 °F 35.6 °F 100% 29.69 in 1.0 mi North 19.6 mph - N/A   Overcast
8:55 PM 35.6 °F 25.9 °F 33.8 °F 93% 29.72 in 8.0 mi North 16.1 mph 24.2 mph N/A   Overcast
9:15 PM 33.8 °F 23.9 °F 30.2 °F 87% 29.75 in 10.0 mi North 15.0 mph 18.4 mph N/A   Overcast
9:35 PM 33.8 °F 25.8 °F 28.4 °F 81% 29.75 in 10.0 mi North 10.4 mph - N/A   Overcast
9:55 PM 32.0 °F 21.6 °F 30.2 °F 93% 29.75 in 10.0 mi North 15.0 mph 19.6 mph N/A   Overcast
10:15 PM 32.0 °F 22.5 °F 28.4 °F 87% 29.76 in 10.0 mi North 12.7 mph - N/A   Overcast
10:35 PM 32.0 °F 25.6 °F 28.4 °F 87% 29.77 in 10.0 mi North 6.9 mph - N/A   Overcast
10:55 PM 32.0 °F 23.6 °F 28.4 °F 87% 29.78 in 8.0 mi NNW 10.4 mph - N/A   Overcast
11:15 PM 32.0 °F 21.6 °F 28.4 °F 87% 29.79 in 4.0 mi NNW 15.0 mph 21.9 mph N/A   Overcast
11:35 PM 32.0 °F 22.1 °F 28.4 °F 87% 29.80 in 10.0 mi NNW 13.8 mph 24.2 mph N/A   Overcast
11:55 PM 32.0 °F 21.2 °F 28.4 °F 87% 29.81 in 10.0 mi NNW 16.1 mph 21.9 mph N/A   Overcast